FW5374 Weather Reports


Display with metric or nautical units.
time (UTC)temp
F
wind
direction
speed
MPH
gust
MPH
rain 1hr
in
rain 24hr
in
rain mn
in
humidity
%
barometer
mb
20260507114405 53 141 3.0 6.0 0.00 0.00 0.00 72 1012.7
20260507113906 54 181 5.0 7.0 0.00 0.00 0.00 72 1012.5
20260507112406 55 161 1.0 5.0 0.00 0.00 0.00 70 1012.5
20260507111907 55 131 5.0 8.0 0.00 0.00 0.00 70 1012.5
20260507111405 55 157 5.0 9.0 0.00 0.00 0.00 70 1012.3
20260507110905 54 218 7.0 10.0 0.00 0.00 0.00 71 1012.3
20260507105906 55 207 2.0 3.0 0.00 0.00 0.00 70 1012.3
20260507105405 55 189 5.0 5.0 0.00 0.00 0.00 69 1012.2
20260507104405 56 174 4.0 7.0 0.00 0.00 0.00 68 1012.3
20260507103905 56 181 6.0 7.0 0.00 0.00 0.00 68 1012.2
20260507103406 56 128 4.0 7.0 0.00 0.00 0.00 68 1012.0
20260507102905 56 188 3.0 5.0 0.00 0.00 0.00 67 1012.0
20260507102406 56 217 4.0 6.0 0.00 0.00 0.00 67 1012.0
20260507101906 57 173 5.0 6.0 0.00 0.00 0.00 66 1011.9
20260507101405 57 188 3.0 5.0 0.00 0.00 0.00 65 1011.9
20260507100905 57 169 3.0 6.0 0.00 0.00 0.00 65 1011.9
20260507100405 57 170 4.0 6.0 0.00 0.00 0.00 65 1011.9
20260507095905 57 208 6.0 8.0 0.00 0.00 0.00 65 1011.9
20260507095405 57 195 6.0 9.0 0.00 0.00 0.00 66 1011.7
20260507094905 57 179 7.0 9.0 0.00 0.00 0.00 66 1011.7
20260507094405 57 197 7.0 8.0 0.00 0.00 0.00 65 1011.7
20260507093906 58 205 5.0 7.0 0.00 0.00 0.00 64 1011.6
20260507093405 59 168 5.0 9.0 0.00 0.00 0.00 62 1011.5
20260507092908 58 139 7.0 12.0 0.00 0.00 0.00 62 1011.4
20260507092405 58 134 7.0 12.0 0.00 0.00 0.00 64 1011.4
20260507091905 59 156 6.0 10.0 0.00 0.00 0.00 63 1011.4
20260507091405 59 217 5.0 7.0 0.00 0.00 0.00 63 1011.3
20260507090905 59 147 3.0 7.0 0.00 0.00 0.00 62 1011.4
20260507090405 59 181 4.0 6.0 0.00 0.00 0.00 61 1011.5
20260507085905 59 178 3.0 3.0 0.00 0.00 0.00 61 1011.4
20260507085406 60 127 0.0 3.0 0.00 0.00 0.00 61 1011.4
20260507084906 60 126 2.0 5.0 0.00 0.00 0.00 61 1011.4
20260507084406 60 121 3.0 6.0 0.00 0.00 0.00 60 1011.4
20260507083906 61 142 0.0 2.0 0.00 0.00 0.00 60 1011.5
20260507083405 61 141 3.0 6.0 0.00 0.00 0.00 60 1011.3
20260507082405 62 172 1.0 3.0 0.00 0.00 0.00 59 1011.4
20260507081905 62 187 0.0 3.0 0.00 0.00 0.00 58 1011.4
20260507081405 63 188 1.0 3.0 0.00 0.00 0.00 56 1011.4
20260507080905 63 195 2.0 3.0 0.00 0.00 0.00 57 1011.3
20260507075905 63 183 2.0 3.0 0.00 0.00 0.00 58 1011.3
20260507075405 64 198 0.0 3.0 0.00 0.00 0.00 58 1011.3
20260507074905 64 164 3.0 5.0 0.00 0.00 0.00 57 1011.3
20260507074405 64 171 1.0 3.0 0.00 0.00 0.00 57 1011.2
20260507073905 65 173 2.0 3.0 0.00 0.00 0.00 57 1011.2
20260507073405 65 173 1.0 3.0 0.00 0.00 0.00 57 1011.2
20260507072405 65 248 2.0 3.0 0.00 0.00 0.00 58 1011.0
20260507071405 65 139 2.0 3.0 0.00 0.00 0.00 56 1010.7
20260507070905 65 137 1.0 3.0 0.00 0.00 0.00 57 1010.7
20260507070405 65 126 2.0 3.0 0.00 0.00 0.00 59 1010.6
20260507065905 65 119 3.0 5.0 0.00 0.00 0.00 59 1010.6
20260507065405 65 125 2.0 3.0 0.00 0.00 0.00 61 1010.6
20260507064405 65 32 1.0 3.0 0.00 0.00 0.00 61 1010.6
20260507063906 65 48 0.0 3.0 0.00 0.00 0.00 60 1010.5
20260507063405 65 96 2.0 6.0 0.00 0.00 0.00 61 1010.3
20260507062905 65 156 2.0 3.0 0.00 0.00 0.00 59 1010.3
20260507062405 65 327 1.0 3.0 0.00 0.00 0.00 62 1010.3
20260507061905 65 5 0.0 2.0 0.00 0.00 0.00 62 1010.2
20260507061405 66 9 2.0 3.0 0.00 0.00 0.00 62 1010.1
20260507060905 66 21 1.0 2.0 0.00 0.00 0.00 61 1010.2
20260507060406 66 26 0.0 3.0 0.00 0.00 0.00 59 1010.2
20260507055905 66 24 0.0 2.0 0.00 0.00 0.00 60 1010.2
20260507055405 66 22 0.0 2.0 0.00 0.00 0.00 60 1010.3
20260507054905 66 23 1.0 3.0 0.00 0.00 0.00 56 1010.2
20260507053905 65 143 2.0 9.0 0.00 0.00 0.00 64 1010.3
20260507053405 65 126 5.0 9.0 0.00 0.00 0.00 63 1010.1
20260507052405 65 166 2.0 5.0 0.00 0.00 0.00 64 1010.1
20260507051905 65 194 3.0 6.0 0.00 0.00 0.00 64 1010.0
20260507051405 65 190 5.0 8.0 0.00 0.00 0.00 63 1010.0
20260507050906 65 180 5.0 7.0 0.00 0.00 0.00 64 1009.9
20260507050406 65 207 5.0 7.0 0.00 0.00 0.00 63 1009.9
20260507045906 66 213 3.0 6.0 0.00 0.00 0.00 63 1009.9
20260507045406 66 200 2.0 3.0 0.00 0.00 0.00 63 1009.9
20260507044906 66 160 2.0 5.0 0.00 0.00 0.00 63 1009.9
20260507043906 66 167 5.0 8.0 0.00 0.00 0.00 63 1010.0
20260507043406 67 153 5.0 10.0 0.00 0.00 0.00 62 1010.0
20260507042906 67 140 6.0 9.0 0.00 0.00 0.00 61 1010.0
20260507042406 67 170 5.0 9.0 0.00 0.00 0.00 61 1010.0
20260507041906 67 211 4.0 9.0 0.00 0.00 0.00 60 1009.9
20260507041406 67 175 5.0 9.0 0.00 0.00 0.00 60 1009.9
20260507040906 68 174 1.0 5.0 0.00 0.00 0.00 59 1009.9
20260507040407 68 158 4.0 7.0 0.00 0.00 0.00 59 1009.9
20260507035906 68 166 3.0 8.0 0.00 0.00 0.00 58 1009.8
20260507035406 69 195 5.0 6.0 0.00 0.00 0.00 57 1009.8
20260507034906 69 166 3.0 6.0 0.00 0.00 0.00 57 1009.8
20260507034406 69 187 5.0 7.0 0.00 0.00 0.00 56 1009.8
20260507033906 69 210 3.0 5.0 0.00 0.00 0.00 57 1009.7
20260507032906 69 192 5.0 5.0 0.00 0.00 0.00 57 1009.5
20260507032406 69 207 4.0 6.0 0.00 0.00 0.00 56 1009.4
20260507031906 70 199 4.0 7.0 0.00 0.00 0.00 57 1009.4
20260507031406 70 180 6.0 8.0 0.00 0.00 0.00 56 1009.4
20260507030906 70 198 2.0 6.0 0.00 0.00 0.00 55 1009.3
20260507025405 71 176 5.0 8.0 0.00 0.00 0.00 53 1009.3
20260507024905 72 183 5.0 7.0 0.00 0.00 0.00 53 1009.3
20260507023906 72 164 5.0 6.0 0.00 0.00 0.00 52 1009.2
20260507023405 73 198 4.0 6.0 0.00 0.00 0.00 52 1009.2
20260507022905 73 134 6.0 9.0 0.00 0.00 0.00 50 1009.1
20260507022406 73 206 3.0 6.0 0.00 0.00 0.00 50 1009.2
20260507021905 74 177 6.0 9.0 0.00 0.00 0.00 48 1009.2
20260507021406 74 178 5.0 7.0 0.00 0.00 0.00 48 1009.2
20260507020906 75 187 5.0 8.0 0.00 0.00 0.00 47 1009.2
20260507020406 76 153 5.0 7.0 0.00 0.00 0.00 46 1009.2
20260507015905 76 145 3.0 3.0 0.00 0.00 0.00 46 1009.2
20260507015405 77 170 2.0 3.0 0.00 0.00 0.00 43 1009.2
20260507014906 77 220 2.0 3.0 0.00 0.00 0.00 44 1009.3
20260507014405 77 265 2.0 5.0 0.00 0.00 0.00 43 1009.2
20260507013905 78 230 3.0 5.0 0.00 0.00 0.00 43 1009.2
20260507013406 78 248 3.0 7.0 0.00 0.00 0.00 41 1009.3
20260507012905 78 239 2.0 3.0 0.00 0.00 0.00 40 1009.2
20260507012406 78 285 1.0 3.0 0.00 0.00 0.00 39 1009.3
20260507011905 78 298 2.0 3.0 0.00 0.00 0.00 39 1009.2
20260507011406 79 302 4.0 8.0 0.00 0.00 0.00 38 1009.2
20260507010905 79 345 3.0 9.0 0.00 0.00 0.00 38 1009.2
20260507005905 79 309 3.0 8.0 0.00 0.00 0.00 38 1009.3
20260507005406 79 349 6.0 9.0 0.00 0.00 0.00 38 1009.3
20260507004905 79 331 6.0 13.0 0.00 0.00 0.00 39 1009.3
20260507004405 80 322 3.0 8.0 0.00 0.00 0.00 39 1009.3
20260507003905 80 286 3.0 8.0 0.00 0.00 0.00 38 1009.4
20260507003405 80 306 5.0 9.0 0.00 0.00 0.00 38 1009.4
20260507002905 81 321 5.0 10.0 0.00 0.00 0.00 38 1009.4
20260507002405 81 282 5.0 9.0 0.00 0.00 0.00 37 1009.4
20260507001906 81 289 4.0 13.0 0.00 0.00 0.00 38 1009.4
20260507001406 81 323 4.0 12.0 0.00 0.00 0.00 38 1009.3
20260507000905 81 329 6.0 10.0 0.00 0.00 0.00 38 1009.2
20260507000406 81 331 2.0 12.0 0.00 0.00 0.00 39 1009.3
20260506235906 81 354 6.0 14.0 0.00 0.00 0.00 38 1009.2
20260506235405 81 335 6.0 14.0 0.00 0.00 0.00 38 1009.3
20260506234905 81 326 5.0 12.0 0.00 0.00 0.00 37 1009.2
20260506234405 82 346 7.0 14.0 0.00 0.00 0.00 36 1009.2
20260506233905 83 335 5.0 12.0 0.00 0.00 0.00 35 1009.3
20260506233406 83 7 5.0 12.0 0.00 0.00 0.00 36 1009.2
20260506232405 84 328 6.0 16.0 0.00 0.00 0.00 32 1009.2
20260506230905 87 307 3.0 6.0 0.00 0.00 0.00 34 1009.2
20260506230405 86 241 1.0 5.0 0.00 0.00 0.00 36 1009.2
20260506225905 86 210 3.0 7.0 0.00 0.00 0.00 35 1009.2
20260506225406 85 217 2.0 5.0 0.00 0.00 0.00 36 1009.2
20260506224905 85 6 3.0 7.0 0.00 0.00 0.00 34 1009.3
20260506224405 85 246 2.0 7.0 0.00 0.00 0.00 35 1009.3
20260506223905 85 239 3.0 7.0 0.00 0.00 0.00 36 1009.5
20260506223405 85 283 3.0 7.0 0.00 0.00 0.00 35 1009.5
20260506222406 85 168 2.0 5.0 0.00 0.00 0.00 36 1009.9
20260506221905 85 162 4.0 7.0 0.00 0.00 0.00 35 1009.9
20260506221405 86 327 2.0 3.0 0.00 0.00 0.00 35 1010.1
20260506220906 86 46 2.0 5.0 0.00 0.00 0.00 34 1010.1
20260506220405 87 46 2.0 5.0 0.00 0.00 0.00 34 1010.2
20260506215905 88 100 3.0 5.0 0.00 0.00 0.00 33 1010.3
20260506215406 88 123 1.0 9.0 0.00 0.00 0.00 33 1010.3
20260506214905 88 118 2.0 7.0 0.00 0.00 0.00 34 1010.4
20260506213905 87 53 1.0 2.0 0.00 0.00 0.00 34 1010.4
20260506212905 85 49 2.0 5.0 0.00 0.00 0.00 35 1010.4
20260506212405 86 17 2.0 3.0 0.00 0.00 0.00 35 1010.5
20260506211405 86 142 2.0 3.0 0.00 0.00 0.00 34 1010.5
20260506210905 86 133 1.0 3.0 0.00 0.00 0.00 34 1010.6
20260506205405 84 11 3.0 7.0 0.00 0.00 0.00 36 1010.6
20260506204906 84 73 2.0 5.0 0.00 0.00 0.00 36 1010.6
20260506204405 84 37 2.0 3.0 0.00 0.00 0.00 35 1010.7
20260506203906 84 26 2.0 6.0 0.00 0.00 0.00 34 1010.7
20260506203405 84 22 3.0 6.0 0.00 0.00 0.00 35 1010.8
20260506202406 84 340 2.0 5.0 0.00 0.00 0.00 34 1011.1
20260506201905 84 47 1.0 3.0 0.00 0.00 0.00 34 1011.1
20260506201406 83 38 2.0 3.0 0.00 0.00 0.00 35 1011.2
20260506200906 84 36 3.0 5.0 0.00 0.00 0.00 35 1011.2
20260506200406 84 176 2.0 3.0 0.00 0.00 0.00 34 1011.1
20260506195906 84 108 3.0 6.0 0.00 0.00 0.00 34 1011.2
20260506195406 83 123 2.0 3.0 0.00 0.00 0.00 34 1011.3
20260506194905 83 133 1.0 5.0 0.00 0.00 0.00 34 1011.3
20260506193906 82 73 2.0 3.0 0.00 0.00 0.00 35 1011.6
20260506193406 82 84 1.0 3.0 0.00 0.00 0.00 35 1011.8
20260506192906 81 199 1.0 3.0 0.00 0.00 0.00 35 1011.8
20260506192407 81 148 2.0 3.0 0.00 0.00 0.00 35 1011.8
20260506191406 79 265 1.0 3.0 0.00 0.00 0.00 35 1012.0
20260506190906 79 330 1.0 3.0 0.00 0.00 0.00 36 1012.2
20260506190406 78 330 2.0 3.0 0.00 0.00 0.00 36 1012.3
20260506185906 78 358 1.0 3.0 0.00 0.00 0.00 36 1012.3
20260506185406 78 21 2.0 3.0 0.00 0.00 0.00 35 1012.3
20260506184906 78 105 2.0 7.0 0.00 0.00 0.00 35 1012.4
20260506184407 78 131 4.0 8.0 0.00 0.00 0.00 35 1012.5
20260506183906 77 132 2.0 8.0 0.00 0.00 0.00 35 1012.5
20260506182906 77 57 3.0 5.0 0.00 0.00 0.00 35 1012.7
20260506182406 77 349 2.0 3.0 0.00 0.00 0.00 35 1012.9
20260506181907 78 111 2.0 3.0 0.00 0.00 0.00 33 1012.9
20260506180906 77 78 2.0 3.0 0.00 0.00 0.00 34 1012.9
20260506180406 76 105 2.0 3.0 0.00 0.00 0.00 36 1012.9
20260506175906 75 71 1.0 3.0 0.00 0.00 0.00 37 1013.0
20260506175405 74 39 2.0 3.0 0.00 0.00 0.00 37 1013.1
20260506174906 74 15 1.0 6.0 0.00 0.00 0.00 38 1013.2
20260506174406 74 332 2.0 6.0 0.00 0.00 0.00 39 1013.2
20260506173906 72 267 1.0 3.0 0.00 0.00 0.00 39 1013.2
20260506173406 72 332 2.0 3.0 0.00 0.00 0.00 39 1013.2
20260506172906 72 328 4.0 8.0 0.00 0.00 0.00 39 1013.2
20260506172405 72 317 3.0 8.0 0.00 0.00 0.00 38 1013.2
20260506171906 73 348 2.0 8.0 0.00 0.00 0.00 38 1013.1
20260506171405 74 41 2.0 5.0 0.00 0.00 0.00 41 1013.1
20260506170406 73 103 2.0 3.0 0.00 0.00 0.00 42 1013.1
20260506165907 72 282 1.0 3.0 0.00 0.00 0.00 42 1013.2
20260506164406 70 115 2.0 3.0 0.00 0.00 0.00 45 1013.3
20260506163905 70 134 1.0 3.0 0.00 0.00 0.00 46 1013.2
20260506163406 69 131 2.0 3.0 0.00 0.00 0.00 46 1013.2
20260506162906 69 151 2.0 3.0 0.00 0.00 0.00 46 1013.3
20260506162405 69 135 1.0 3.0 0.00 0.00 0.00 47 1013.3
20260506161405 67 218 0.0 2.0 0.00 0.00 0.00 49 1013.5
20260506160906 67 218 1.0 2.0 0.00 0.00 0.00 49 1013.5
20260506160406 67 217 1.0 3.0 0.00 0.00 0.00 48 1013.6
20260506155906 67 131 0.0 3.0 0.00 0.00 0.00 49 1013.6
20260506155406 66 143 2.0 3.0 0.00 0.00 0.00 50 1013.6
20260506154905 65 133 1.0 2.0 0.00 0.00 0.00 52 1013.7
20260506154406 65 147 0.0 2.0 0.00 0.00 0.00 51 1013.7
20260506153905 64 166 1.0 3.0 0.00 0.00 0.00 52 1013.7
20260506153405 63 82 1.0 3.0 0.00 0.00 0.00 53 1013.7
20260506152406 62 109 1.0 3.0 0.00 0.00 0.00 55 1013.7
20260506151905 61 138 1.0 3.0 0.00 0.00 0.00 56 1013.8
20260506151405 61 151 2.0 3.0 0.00 0.00 0.00 58 1013.9
20260506150905 60 109 2.0 3.0 0.00 0.00 0.00 59 1013.9
20260506145906 59 125 3.0 3.0 0.00 0.00 0.00 62 1014.0
20260506144906 57 131 3.0 5.0 0.00 0.00 0.00 65 1014.1
20260506144405 57 143 3.0 3.0 0.00 0.00 0.00 66 1014.1
20260506143905 56 137 3.0 3.0 0.00 0.00 0.00 67 1014.0
20260506143405 56 143 3.0 5.0 0.00 0.00 0.00 68 1014.1
20260506142905 55 125 3.0 3.0 0.00 0.00 0.00 70 1014.1
20260506142404 54 124 3.0 5.0 0.00 0.00 0.00 71 1014.3
20260506141905 54 107 2.0 5.0 0.00 0.00 0.00 72 1014.3
20260506140905 52 129 1.0 2.0 0.00 0.00 0.00 76 1014.3
20260506140405 51 129 0.0 2.0 0.00 0.00 0.00 77 1014.3
20260506135905 50 140 1.0 3.0 0.00 0.00 0.00 78 1014.2
20260506135405 49 152 2.0 5.0 0.00 0.00 0.00 79 1014.2
20260506134905 49 175 3.0 6.0 0.00 0.00 0.00 79 1014.3
20260506134406 48 172 2.0 3.0 0.00 0.00 0.00 80 1014.1
20260506133405 47 149 4.0 6.0 0.00 0.00 0.00 82 1014.1
20260506132905 46 164 3.0 5.0 0.00 0.00 0.00 83 1014.0
20260506132405 46 192 3.0 5.0 0.00 0.00 0.00 84 1013.9
20260506131905 45 201 2.0 3.0 0.00 0.00 0.00 84 1013.8
20260506131406 45 161 1.0 2.0 0.00 0.00 0.00 83 1013.8
20260506130405 45 178 0.0 2.0 0.00 0.00 0.00 83 1013.7
20260506125905 45 176 1.0 2.0 0.00 0.00 0.00 83 1013.7
20260506125405 45 178 1.0 2.0 0.00 0.00 0.00 83 1013.7
20260506124905 45 182 1.0 3.0 0.00 0.00 0.00 83 1013.6
20260506124405 46 181 1.0 2.0 0.00 0.00 0.00 82 1013.5
20260506123905 46 178 1.0 3.0 0.00 0.00 0.00 83 1013.6
20260506123405 46 171 2.0 6.0 0.00 0.00 0.00 83 1013.5
20260506122905 46 197 3.0 5.0 0.00 0.00 0.00 83 1013.5
20260506122405 46 198 2.0 5.0 0.00 0.00 0.00 82 1013.4
20260506121906 46 181 2.0 3.0 0.00 0.00 0.00 82 1013.4
20260506121405 46 178 2.0 6.0 0.00 0.00 0.00 82 1013.3
20260506120905 46 224 3.0 5.0 0.00 0.00 0.00 82 1013.3
20260506120405 46 180 3.0 5.0 0.00 0.00 0.00 82 1013.4
20260506115905 46 194 2.0 5.0 0.00 0.00 0.00 81 1013.3
20260506115406 47 163 1.0 3.0 0.00 0.00 0.00 81 1013.3
20260506114905 47 153 2.0 3.0 0.00 0.00 0.00 81 1013.2